Flag for U.S.A. Weather past 2 weeks in Fairfax, Virginia, U.S.A.

Now
73 °F

Partly cloudy.


Feels Like: 71 °F
Forecast: 69 / 78 °F
Wind: 10 mph from Southeast

Location: Washington-Dulles International Airport

Current Time: Aug 22, 2014 at 11:37:14 PM

Latest Report: Aug 22, 2014 at 10:52 PM


Visibility: 10 mi

Pressure: 29.98 "Hg

Humidity: 88%

Dew point: 69 °F

Location of FairfaxLocation

Historic Weather in Fairfax — Graph

°F

Fairfax temperature yesterday

Maximum temperature yesterday: 85 °F (at 1:52 PM)
Minimum temperature yesterday: 62 °F (at 5:52 AM)
Average temperature yesterday: 72 °F

Past Weeks' High & Low Weather Summary

 TemperatureHumidityPressure
High87 °F (Aug 17, 4:52 PM)100% (Aug 10, 5:52 AM)30.14 "Hg (Aug 10, 5:52 AM)
Low53 °F (Aug 15, 5:52 AM)30% (Aug 14, 5:52 PM)29.75 "Hg (Aug 13, 3:52 AM)
Average72 °F72%29.97 "Hg
* Reported Aug 7 9:52 PM — Aug 22 9:52 PM, Fairfax, Weather by CustomWeather, © 2014

Note: Actual official high and low records may vary slightly from our data, if they occured in-between our weather recording intervals... More about our weather records

Advertising

Fairfax weather history for previous 24 hours

 ConditionsComfort  
Time TempWeatherWind HumidityBarometerVisibility
9:52 PM
Aug 22
72 °FPassing clouds.5 mph91%29.98 "Hg8 mi
8:52 PM73 °FPartly sunny.5 mph88%29.97 "Hg8 mi
7:52 PM76 °FScattered clouds.8 mph82%29.95 "Hg8 mi
6:52 PM79 °FBroken clouds.No wind69%29.95 "Hg10 mi
5:52 PM79 °FBroken clouds.No wind67%29.96 "Hg10 mi
4:52 PM79 °FScattered clouds.No wind69%29.96 "Hg10 mi
3:52 PM78 °FBroken clouds.3 mph76%29.96 "Hg9 mi
2:52 PM76 °FBroken clouds.No wind85%29.98 "Hg9 mi
1:52 PM75 °FMostly cloudy.3 mph88%29.99 "Hg8 mi
12:52 PM75 °FLight rain. Cloudy.No wind76%30.00 "Hg7 mi
11:52 AM75 °FMostly cloudy.5 mph76%30.00 "Hg10 mi
10:52 AM74 °FLight rain. Cloudy.3 mph82%30.00 "Hg10 mi
9:52 AM74 °FDrizzle. Mostly cloudy.9 mph76%30.01 "Hg10 mi
8:52 AM74 °FPassing clouds.8 mph79%30.00 "Hg10 mi
7:52 AM71 °FPartly sunny.3 mph84%30.00 "Hg10 mi
6:52 AM68 °FPartly cloudy.No wind93%29.98 "Hg10 mi
5:52 AM70 °FPassing clouds.3 mph84%29.97 "Hg10 mi
4:52 AM71 °FPassing clouds.No wind81%29.96 "Hg10 mi
3:52 AM67 °FPassing clouds.No wind97%29.96 "Hg10 mi
2:52 AM68 °FPassing clouds.No wind96%29.98 "Hg10 mi
1:52 AM69 °FPassing clouds.No wind93%29.98 "Hg10 mi
12:52 AM70 °FPassing clouds.No wind97%29.99 "Hg9 mi
11:52 PM
Aug 21
72 °FPassing clouds.No wind97%29.99 "Hg8 mi
Weather by CustomWeather, © 2014

See weather overviewHow to use our weather pages